TITAN 3C TRANSTAGE R/B, 11147

Orbit data source: Space-Track

TITAN 3C TRANSTAGE R/B, 11147 is space debris in GEO originally from a launch on Thu, 14 Dec 1978 UTC launched from the Air Force Eastern Test Range (AFETR). Debris objects in space refer to the collection of defunct objects orbiting the Earth. Examples of debris include non-operational satellites, rocket bodies, and fragments generated from explosions, collisions, or faulty payload assembly.

Not visible in the next 10 days
Identifier
11147, 1978-113D
Orbit
GEO
Country
Flag of USUS
Related business
Manufacturer
Martin Marietta
Mission
Spacecraft
Bus & Motor
TRANSTAGE, Unknown motor
Mass
~1,950 kg wet, ~1,950 kg dry
Launch date (UTC)
1978-12-14 (48 years ago)
Launch vehicle
Unknown
Launch site
Air Force Eastern Test Range (AFETR)
Object type
Payload
Rocket body
Debris
Shape & HBR
Unknown
Radar Cross Section
Large (>1 m²)

Expand to show TLE details & history
Last TLE update: 2 days ago

TLE from 2 days ago
0 TITAN 3C TRANSTAGE R/B
1 11147U 78113D   26171.44072373 -.00000212  00000-0  00000+0 0  9996
2 11147  10.7476 305.5512 0254679  68.9989 189.2241  0.93756407114390
Epoch: 2026-06-20T10:34Z
TLE epoch observation values (Epoch: 2026-06-20T10:34:38.530Z)
Latitude
-10.52335°
Longitude
135.79045°
Altitude
38,825.044 km
Speed
2.932 km/s
True Right ascension
13h 32m 25s
True Declination
-10° 30' 49"
Sunlit
Object was in daylight at epoch
Visualization orbit readout
Latitude
Unknown
Longitude
Unknown
Altitude
Unknown
Speed
Unknown
Apparent Right ascension
Unknown
Apparent Declination
Unknown
Sunlit
N/A
Visualization observer readout
Local Sidereal Time
23:27:26
Azimuth
Unknown
Elevation
Unknown
Doppler factor
Unknown
Orbital elements
Apogee altitude
38,842.104 km
Perigee altitude
36,595.979 km
Semi-major axis
44,097.179 km
Eccentricity
0.02547
Inclination
10.7476°
RAAN
305.5512°
Arg. of periapsis
68.9989°
True anomaly
188.77056°
Mean anomaly
189.2241°
Eccentric anomaly
188.99593°
Mean motion
0.23438 °/min
Orbital period
1,535.94 mins
BSTAR
0
Loading maneuver chart data...
Computing Atmospheric mass density...
Loading historical data...
Loading historical data...
Loading historical data...
Loading historical data...
Loading historical data...
Loading historical data...
Loading historical data...

Documentation

Showing up to 5 results
|